This demonstration page uses our WeatherBlox Daily Observations layout. Learn more.

Left ArrowRight Arrow

Hourly Observations for May 16, 2016

Temp ( °F °C ) Dew Point ( °F °C ) Humidity (%) Winds ( mph kmh ) Pressure ( in mb ) Visibility ( mi km ) Precip ( " mm )
12:53 am 00:53 Clear 38 3.3 31 -0.6 76 76 SE 3 6 30.25 1025 10 16 N/A
1:53 am 01:53 Clear 35 1.7 32 undefined 89 89 N N/A 30.25 1025 10 16 N/A
2:53 am 02:53 Clear 34 1.1 32 undefined 92 92 N N/A 30.25 1025 10 16 N/A
3:53 am 03:53 Clear 33 0.6 31 -0.6 92 92 N N/A 30.25 1024 10 16 N/A
4:53 am 04:53 Clear 34 1.1 32 undefined 92 92 N N/A 30.26 1025 10 16 N/A
5:53 am 05:53 Clear 33 0.6 32 undefined 96 96 N N/A 30.26 1025 9 14 N/A
6:53 am 06:53 Sunny 34 1.1 32 undefined 92 92 N N/A 30.27 1025 10 16 N/A
7:53 am 07:53 Sunny 39 3.9 34 1.1 82 82 N N/A 30.29 1026 10 16 N/A
8:53 am 08:53 Sunny 48 8.9 31 -0.6 52 52 S 5 7 30.30 1026 10 16 N/A
9:53 am 09:53 Sunny 53 11.7 31 -0.6 43 43 N N/A 30.30 1026 10 16 N/A
10:53 am 10:53 Sunny 56 13.3 31 -0.6 39 39 VRB 6 9 30.29 1026 10 16 N/A
11:53 am 11:53 Sunny 57 13.9 28 -2.2 33 33 VRB 6 9 30.29 1026 10 16 N/A
12:53 pm 12:53 Sunny 60 15.6 30 -1.1 32 32 WSW 8 13 30.27 1025 10 16 N/A
1:53 pm 13:53 Sunny 61 16.1 31 -0.6 32 32 WSW 5 7 30.25 1024 10 16 N/A
2:53 pm 14:53 Sunny 63 17.2 34 1.1 34 34 VRB 6 9 30.24 1024 10 16 N/A
3:53 pm 15:53 Sunny 64 17.8 32 undefined 30 30 undefined N/A 30.22 1024 10 16 N/A
4:53 pm 16:53 Sunny 65 18.3 34 1.1 32 32 VRB 3 6 30.21 1023 10 16 N/A
5:53 pm 17:53 Sunny 63 17.2 32 undefined 31 31 N N/A 30.19 1022 10 16 N/A
6:53 pm 18:53 Sunny 62 16.7 35 1.7 37 37 WNW 5 7 30.19 1023 10 16 N/A
7:53 pm 19:53 Sunny 61 16.1 36 2.2 39 39 W 3 6 30.19 1022 10 16 N/A
8:53 pm 20:53 Mostly Cloudy 56 13.3 46 7.8 70 70 N N/A 30.19 1022 10 16 N/A
9:53 pm 21:53 Mostly Cloudy 55 12.8 47 8.3 74 74 N N/A 30.20 1023 10 16 N/A
10:53 pm 22:53 Cloudy 58 14.4 39 3.9 50 50 N N/A 30.20 1023 10 16 N/A
11:53 pm 23:53 Cloudy 56 13.3 40 4.4 55 55 SW 3 6 30.19 1023 10 16 N/A

Powered by AerisWeather